Location: Newark
(41.0400°S, 62.7845°W)
Time: 03:22:00
(UTC+00:00)

Transit 2A - Pass Details

Date: 03 December 2021
Orbit: 591 x 967 km, 66.7° (Epoch: 20 January)

Event Time Altitude Azimuth Distance (km) Brightness Sun altitude
Rises 23:51:07 0° 197° (SSW) 2,868 9.9 -4.2°
Reaches altitude 10° 23:54:03 10° 176° (S) 1,960 8.6 -4.7°
Maximum altitude 23:56:58 17° 134° (SE) 1,548 7.5 -5.1°
Drops below altitude 10° 23:59:57 10° 91° (E) 1,995 7.7 -5.6°
Enters shadow 00:01:34 - 78° (ENE) 2,473 8.1 -5.8°
Sets 00:02:57 0° 71° (ENE) 2,941 - -6.0°
